FW6835 Weather Reports


time (UTC)temp
F
wind
direction
speed
knots
gust
knots
rain 1hr
in
rain 24hr
in
rain mn
in
humidity
%
barometer
mb
20221208002559 30 253 0.0 0.0 0.00 0.01 0.00 97 1012.3
20221208002101 30 223 0.0 0.0 0.00 0.01 0.00 97 1012.2
20221208001601 30 224 0.0 0.0 0.00 0.01 0.00 97 1012.3
20221208001059 30 217 0.0 0.0 0.00 0.01 0.00 97 1012.3
20221208000557 30 219 0.0 0.0 0.00 0.01 0.00 96 1012.3
20221208000057 30 210 0.0 0.0 0.00 0.01 0.00 97 1012.2
20221207235557 30 254 0.0 0.0 0.00 0.01 0.00 97 1012.2
20221207235057 30 219 0.0 0.0 0.00 0.01 0.00 96 1012.3
20221207234557 30 229 0.0 0.0 0.00 0.01 0.00 97 1012.4
20221207234056 30 224 0.0 0.0 0.00 0.01 0.00 96 1012.4
20221207233555 30 224 0.0 0.0 0.00 0.01 0.00 97 1012.4
20221207233055 30 222 0.0 0.0 0.00 0.01 0.00 96 1012.4
20221207232554 30 220 0.0 0.0 0.00 0.01 0.00 97 1012.4
20221207232054 30 249 0.0 0.0 0.00 0.01 0.00 96 1012.4
20221207231556 30 221 0.0 0.0 0.00 0.01 0.00 96 1012.5
20221207231053 30 213 0.0 0.0 0.00 0.01 0.00 96 1012.5
20221207230555 30 215 0.0 0.0 0.00 0.01 0.00 96 1012.5
20221207230052 30 212 0.0 0.0 0.00 0.01 0.00 96 1012.5
20221207225555 30 227 0.0 0.0 0.00 0.01 0.01 96 1012.5
20221207225051 30 214 0.0 0.0 0.00 0.01 0.01 96 1012.5
20221207224551 30 213 0.0 0.0 0.00 0.01 0.01 96 1012.6
20221207224051 30 186 0.0 0.0 0.00 0.01 0.01 96 1012.6
20221207223551 30 211 0.0 0.0 0.00 0.01 0.01 96 1012.7
20221207223051 30 233 0.0 0.0 0.00 0.01 0.01 96 1012.7
20221207222553 30 220 0.0 0.0 0.00 0.01 0.01 96 1012.6
20221207222050 30 246 0.0 0.0 0.00 0.01 0.01 96 1012.7
20221207221550 30 234 0.0 0.0 0.00 0.01 0.01 96 1012.6
20221207221050 30 236 0.0 0.0 0.00 0.01 0.01 96 1012.7
20221207220053 30 295 0.0 0.9 0.00 0.01 0.01 96 1012.8
20221207215548 30 242 0.0 0.0 0.00 0.01 0.01 97 1012.6
20221207215049 30 235 0.0 0.0 0.00 0.01 0.01 97 1012.8
20221207214548 30 238 0.0 0.0 0.00 0.01 0.01 97 1012.8
20221207214047 30 184 0.0 0.0 0.00 0.01 0.01 97 1012.8
20221207213548 30 224 0.0 0.0 0.00 0.01 0.01 97 1012.6
20221207213050 30 213 0.0 0.0 0.00 0.01 0.01 97 1012.7
20221207212547 30 213 0.0 0.0 0.00 0.01 0.01 97 1012.8
20221207212048 30 186 0.0 0.0 0.00 0.01 0.01 97 1012.7
20221207211548 30 217 0.0 0.0 0.00 0.01 0.01 97 1012.9
20221207211047 30 225 0.0 0.0 0.00 0.01 0.01 97 1012.9
20221207210549 30 201 0.0 0.0 0.00 0.01 0.01 97 1012.8
20221207210047 30 207 0.0 0.0 0.00 0.01 0.01 97 1012.7
20221207205546 30 227 0.0 0.0 0.00 0.01 0.01 97 1012.8
20221207205046 30 210 0.0 0.0 0.00 0.01 0.01 97 1012.8
20221207204546 30 227 0.0 0.0 0.00 0.01 0.01 97 1012.9
20221207204047 30 242 0.0 0.0 0.00 0.01 0.01 97 1013.0
20221207203545 30 250 0.0 0.0 0.00 0.01 0.01 97 1013.0
20221207203051 30 208 0.0 0.0 0.00 0.01 0.01 97 1013.0
20221207202547 30 238 0.0 0.0 0.00 0.01 0.01 97 1013.1
20221207202050 30 235 0.0 0.0 0.00 0.01 0.01 97 1013.2
20221207201557 30 230 0.0 0.0 0.00 0.01 0.01 97 1013.1
20221207201047 30 215 0.0 0.0 0.00 0.01 0.01 97 1013.1
20221207200545 30 240 0.0 0.0 0.00 0.01 0.01 96 1013.1
20221207200045 31 248 0.0 0.0 0.00 0.01 0.01 96 1013.1
20221207195549 31 236 0.0 0.0 0.00 0.01 0.01 96 1013.1
20221207195044 31 217 0.0 0.0 0.00 0.01 0.01 96 1013.1
20221207194543 31 258 0.0 0.0 0.00 0.01 0.01 96 1013.1
20221207194048 31 242 0.0 0.0 0.00 0.01 0.01 96 1013.1
20221207193544 31 246 0.0 0.0 0.00 0.01 0.01 96 1013.1
20221207193050 31 241 0.0 0.0 0.00 0.01 0.01 96 1013.0
20221207192543 31 234 0.0 0.0 0.00 0.01 0.01 96 1013.0
20221207192048 31 217 0.0 0.0 0.00 0.01 0.01 96 1013.1
20221207191544 31 207 0.0 0.0 0.00 0.01 0.01 96 1013.0
20221207191043 31 190 0.0 0.0 0.00 0.01 0.01 96 1013.0
20221207190542 31 200 0.0 0.0 0.00 0.01 0.01 96 1013.0
20221207190047 31 184 0.0 0.0 0.00 0.01 0.01 96 1013.2
20221207185546 31 211 0.0 0.0 0.00 0.01 0.01 96 1013.2
20221207185046 31 229 0.0 0.0 0.00 0.01 0.01 96 1013.2
20221207184543 31 199 0.0 0.0 0.00 0.01 0.01 96 1013.2
20221207184042 31 225 0.0 0.0 0.00 0.01 0.01 96 1013.3
20221207183546 31 256 0.0 0.0 0.00 0.01 0.01 96 1013.3
20221207183044 31 240 0.0 0.0 0.00 0.01 0.01 97 1013.1
20221207182541 31 268 0.0 0.0 0.00 0.01 0.01 97 1013.1
20221207182041 31 191 0.0 0.0 0.00 0.01 0.01 97 1013.1
20221207181549 31 221 0.0 0.0 0.00 0.01 0.01 96 1013.0
20221207181041 31 286 0.0 0.0 0.00 0.01 0.01 97 1012.9
20221207180540 31 216 0.0 0.0 0.00 0.01 0.01 97 1013.0
20221207180045 31 190 0.0 0.0 0.00 0.01 0.01 97 1013.1
20221207175540 31 190 0.0 0.0 0.00 0.01 0.01 97 1013.0
20221207175040 31 252 0.0 0.0 0.00 0.01 0.01 97 1013.0
20221207174602 31 179 0.0 0.0 0.00 0.01 0.01 97 1013.1
20221207174041 31 260 0.0 0.0 0.00 0.01 0.01 97 1013.1
20221207173539 31 255 0.0 0.0 0.00 0.01 0.01 97 1013.1
20221207173039 31 175 0.0 0.0 0.00 0.01 0.01 97 1013.0
20221207172539 31 253 0.0 0.0 0.00 0.01 0.01 97 1013.0
20221207172038 31 242 0.0 0.0 0.00 0.01 0.01 97 1013.0
20221207171545 31 267 0.0 0.0 0.00 0.01 0.01 97 1013.0
20221207171042 31 197 0.0 0.0 0.00 0.01 0.01 97 1013.0
20221207170538 31 250 0.0 0.0 0.00 0.01 0.01 97 1013.0
20221207170038 31 217 0.0 0.0 0.00 0.01 0.01 97 1012.9
20221207165537 31 235 0.0 0.0 0.00 0.01 0.01 97 1013.0
20221207165038 31 249 0.0 0.0 0.00 0.01 0.01 97 1013.0
20221207164537 31 239 0.0 0.0 0.00 0.01 0.01 97 1012.9
20221207164036 31 231 0.0 0.0 0.00 0.01 0.01 97 1012.9
20221207163539 31 182 0.0 0.9 0.00 0.01 0.01 97 1012.9
20221207163036 31 240 0.0 0.9 0.00 0.01 0.01 97 1012.8
20221207162537 31 224 0.0 0.0 0.00 0.01 0.01 97 1012.9
20221207162037 31 249 0.0 0.0 0.00 0.01 0.01 97 1012.9
20221207161537 31 227 0.0 0.0 0.00 0.01 0.01 97 1012.9
20221207161036 31 192 0.0 0.0 0.00 0.01 0.01 97 1012.9
20221207160536 31 226 0.0 0.0 0.00 0.01 0.01 97 1012.8
20221207160058 31 241 0.0 0.0 0.00 0.01 0.01 97 1012.8
20221207155537 31 190 0.0 0.0 0.00 0.01 0.01 97 1012.9
20221207155038 31 193 0.0 0.0 0.00 0.01 0.01 97 1013.0
20221207154540 31 244 0.0 0.0 0.00 0.01 0.01 97 1012.9
20221207154036 31 200 0.0 0.9 0.00 0.01 0.01 97 1012.9
20221207153535 31 186 0.0 0.0 0.00 0.01 0.01 97 1012.9
20221207153035 31 195 0.0 0.0 0.00 0.01 0.01 97 1013.0
20221207152535 31 309 0.0 1.7 0.00 0.01 0.01 97 1013.0
20221207152037 31 221 0.0 1.7 0.00 0.01 0.01 97 1013.0
20221207151547 31 232 0.0 0.0 0.00 0.01 0.01 97 1013.0
20221207151036 31 165 0.0 0.0 0.00 0.01 0.01 96 1012.9
20221207150536 31 124 0.0 0.0 0.00 0.01 0.01 96 1012.8
20221207150057 31 252 0.0 0.0 0.00 0.01 0.01 96 1012.6
20221207145534 31 215 0.0 0.0 0.00 0.01 0.01 96 1012.6
20221207145034 31 211 0.0 0.0 0.00 0.01 0.01 97 1012.6
20221207144540 31 222 0.0 0.0 0.00 0.01 0.01 96 1012.6
20221207144034 31 231 0.0 0.0 0.00 0.01 0.01 97 1012.6
20221207143533 31 245 0.0 0.0 0.00 0.01 0.01 97 1012.7
20221207143035 31 212 0.0 0.0 0.00 0.01 0.01 97 1012.8
20221207142533 31 238 0.0 0.0 0.00 0.01 0.01 97 1012.8
20221207142035 31 248 0.0 0.0 0.00 0.01 0.01 97 1012.9
20221207141535 31 240 0.0 0.9 0.00 0.01 0.01 97 1012.8
20221207141032 31 232 0.0 0.9 0.00 0.01 0.01 97 1012.9
20221207140532 31 240 0.0 0.9 0.00 0.01 0.01 96 1012.8
20221207140035 31 146 0.0 0.0 0.00 0.01 0.01 96 1012.8
20221207135536 31 235 0.0 0.0 0.00 0.01 0.01 96 1012.7
20221207135032 31 274 0.0 0.0 0.00 0.01 0.01 96 1012.8
20221207134535 31 209 0.0 0.0 0.00 0.01 0.01 97 1012.6
20221207134031 32 270 0.0 0.0 0.00 0.01 0.01 97 1012.8
20221207133531 32 291 0.0 0.0 0.00 0.01 0.01 97 1012.7
20221207133032 32 158 0.0 0.9 0.00 0.01 0.01 97 1012.7
20221207132533 32 223 0.0 0.0 0.00 0.01 0.01 97 1012.7
20221207132031 32 250 0.0 0.0 0.00 0.01 0.01 97 1012.7
20221207131530 32 198 0.0 1.7 0.00 0.01 0.01 97 1012.8
20221207131030 31 248 0.0 2.6 0.00 0.01 0.01 96 1012.7
20221207130530 31 223 0.0 2.6 0.00 0.01 0.01 97 1012.6
20221207130031 31 232 0.0 0.9 0.00 0.01 0.01 97 1012.8
20221207125529 31 253 0.0 0.9 0.00 0.01 0.01 97 1012.8
20221207125032 31 246 0.0 0.0 0.00 0.01 0.01 97 1012.6
20221207124529 31 261 0.0 2.6 0.00 0.01 0.01 97 1012.6
20221207124033 31 188 0.0 2.6 0.00 0.01 0.01 97 1012.7
20221207123528 31 238 0.0 2.6 0.00 0.01 0.01 97 1012.7
20221207123031 31 252 0.0 2.6 0.00 0.01 0.01 97 1012.6
20221207122529 31 257 0.0 1.7 0.00 0.01 0.01 97 1012.7
20221207122031 32 173 0.0 2.6 0.00 0.01 0.01 97 1012.8
20221207121527 31 255 0.0 2.6 0.00 0.01 0.01 97 1012.8
20221207121026 31 61 0.0 0.9 0.00 0.01 0.01 97 1012.9
20221207120527 31 262 0.0 0.9 0.00 0.01 0.01 97 1013.0
20221207120036 31 265 0.0 0.0 0.00 0.01 0.01 97 1013.0
20221207115524 31 241 0.0 0.0 0.00 0.01 0.01 97 1013.1
20221207115024 31 221 0.0 0.9 0.00 0.01 0.01 97 1013.1
20221207114524 31 254 0.0 0.9 0.00 0.01 0.01 97 1013.1
20221207114024 31 230 0.0 0.9 0.00 0.01 0.01 97 1013.1
20221207113523 31 248 0.0 0.9 0.00 0.01 0.01 97 1013.2
20221207113024 31 252 0.0 0.0 0.00 0.01 0.01 97 1013.2
20221207112522 31 250 0.0 0.0 0.00 0.01 0.01 97 1013.3
20221207112022 31 209 0.0 0.0 0.01 0.01 0.01 97 1013.5
20221207111521 31 213 0.0 0.0 0.01 0.01 0.01 97 1013.5
20221207111021 31 248 0.0 0.0 0.01 0.01 0.01 97 1013.5
20221207110520 31 261 0.0 0.0 0.01 0.01 0.01 97 1013.5
20221207110024 31 245 0.0 0.9 0.01 0.01 0.01 97 1013.6
20221207105520 31 227 0.0 0.9 0.01 0.01 0.01 97 1013.6
20221207105020 31 232 0.0 0.0 0.01 0.01 0.01 97 1013.6
20221207104521 31 213 0.0 0.0 0.01 0.01 0.01 97 1013.6
20221207104017 31 211 0.0 0.0 0.01 0.01 0.01 97 1013.5
20221207103517 31 259 0.0 0.0 0.01 0.01 0.01 97 1013.6
20221207103021 31 242 0.0 0.0 0.01 0.01 0.01 97 1013.6
20221207102520 31 252 0.0 0.0 0.01 0.01 0.01 97 1013.7
20221207102016 30 180 0.0 0.0 0.00 0.00 0.00 97 1013.7
20221207101517 30 190 0.0 0.0 0.00 0.00 0.00 96 1013.8
20221207101016 30 206 0.0 0.0 0.00 0.00 0.00 96 1013.7
20221207100515 30 234 0.0 0.0 0.00 0.00 0.00 97 1013.8
20221207100015 30 194 0.0 0.0 0.00 0.00 0.00 97 1013.7
20221207095515 30 184 0.0 0.0 0.00 0.00 0.00 97 1013.7
20221207095015 30 214 0.0 0.0 0.00 0.00 0.00 97 1013.8
20221207094514 30 199 0.0 0.0 0.00 0.00 0.00 96 1013.8
20221207094014 30 246 0.0 0.0 0.00 0.00 0.00 96 1013.9
20221207093516 30 205 0.0 0.0 0.00 0.00 0.00 96 1013.9
20221207093014 29 234 0.0 0.0 0.00 0.00 0.00 96 1014.0
20221207092512 29 192 0.0 0.0 0.00 0.00 0.00 96 1014.0
20221207092012 29 203 0.0 0.0 0.00 0.00 0.00 96 1014.0
20221207091512 29 206 0.0 0.0 0.00 0.00 0.00 96 1014.0
20221207091013 29 195 0.0 0.0 0.00 0.00 0.00 96 1014.0
20221207090517 29 238 0.0 0.0 0.00 0.00 0.00 96 1014.1
20221207090012 29 219 0.0 0.0 0.00 0.00 0.00 96 1014.0
20221207085512 29 209 0.0 0.0 0.00 0.01 0.00 96 1014.0
20221207085015 29 249 0.0 0.0 0.00 0.01 0.00 96 1014.0
20221207084512 29 241 0.0 0.0 0.00 0.01 0.00 96 1013.9
20221207084012 29 254 0.0 0.0 0.00 0.01 0.00 96 1013.8
20221207083511 29 204 0.0 0.0 0.00 0.01 0.00 96 1013.9
20221207083012 29 250 0.0 0.0 0.00 0.01 0.00 96 1013.9
20221207082510 29 244 0.0 0.0 0.00 0.01 0.00 96 1013.8
20221207082010 29 236 0.0 0.0 0.00 0.01 0.00 96 1013.9
20221207081515 29 231 0.0 0.0 0.00 0.01 0.00 96 1013.8
20221207081109 29 222 0.0 0.0 0.00 0.01 0.00 96 1013.8
20221207080509 29 212 0.0 0.0 0.00 0.01 0.00 96 1013.8
20221207080030 29 283 0.0 0.0 0.00 0.01 0.00 96 1013.7
20221207075508 29 240 0.0 0.0 0.00 0.01 0.00 96 1013.6
20221207075010 29 240 0.0 0.0 0.00 0.01 0.00 96 1013.6
20221207074509 29 234 0.0 0.0 0.00 0.01 0.00 96 1013.7
20221207074007 29 277 0.0 0.0 0.00 0.01 0.00 96 1013.7
20221207073508 29 234 0.0 0.0 0.00 0.01 0.00 96 1013.6
20221207073007 29 247 0.0 0.0 0.00 0.01 0.00 96 1013.6
20221207072508 29 242 0.0 0.0 0.00 0.01 0.00 96 1013.6
20221207072008 29 244 0.0 0.0 0.00 0.01 0.00 96 1013.7
20221207071507 29 244 0.0 0.0 0.00 0.01 0.00 96 1013.7
20221207071006 29 238 0.0 0.0 0.00 0.01 0.00 96 1013.7
20221207070507 29 234 0.0 0.0 0.00 0.01 0.00 96 1013.6
20221207070006 29 233 0.0 0.0 0.00 0.01 0.00 96 1013.6
20221207065506 29 227 0.0 0.0 0.00 0.01 0.00 96 1013.7
20221207065006 29 197 0.0 0.0 0.00 0.01 0.00 96 1013.7
20221207064506 29 238 0.0 0.0 0.00 0.01 0.00 96 1013.7
20221207064005 29 237 0.0 0.0 0.00 0.01 0.00 96 1013.6
20221207063508 29 230 0.0 0.0 0.00 0.01 0.00 96 1013.6
20221207063008 29 234 0.0 0.0 0.00 0.01 0.00 96 1013.8
20221207062504 29 255 0.0 0.0 0.00 0.01 0.00 96 1013.7
20221207062004 29 209 0.0 0.0 0.00 0.01 0.00 96 1013.9
20221207061504 29 219 0.0 0.0 0.00 0.01 0.00 96 1013.8
20221207061003 29 215 0.0 0.0 0.00 0.01 0.00 96 1013.8
20221207060503 29 232 0.0 0.0 0.00 0.01 0.00 96 1013.7
20221207060012 29 215 0.0 0.0 0.00 0.01 0.00 96 1013.7
20221207055502 29 252 0.0 0.0 0.00 0.02 0.00 96 1013.9
20221207055002 29 260 0.0 0.0 0.00 0.02 0.00 96 1013.7
20221207054505 29 215 0.0 0.0 0.00 0.02 0.00 97 1013.7
20221207054101 29 212 0.0 0.0 0.00 0.02 0.00 97 1013.8
20221207053603 29 219 0.0 0.0 0.00 0.02 0.00 97 1013.8
20221207053106 29 190 0.0 0.0 0.00 0.02 0.00 97 1014.0
20221207053001 29 190 0.0 0.0 0.00 0.02 0.00 97 1014.0
20221207052600 29 240 0.0 0.0 0.00 0.02 0.00 97 1013.9
20221207052100 29 234 0.0 0.0 0.00 0.02 0.00 97 1013.8
20221207051559 29 232 0.0 0.0 0.00 0.02 0.00 97 1013.8
20221207051101 29 253 0.0 0.0 0.00 0.02 0.00 97 1014.0
20221207050558 29 252 0.0 0.0 0.00 0.02 0.00 97 1014.0
20221207050057 29 233 0.0 0.0 0.00 0.02 0.00 97 1014.1
20221207045558 29 207 0.0 0.0 0.00 0.02 0.00 97 1014.1
20221207045101 29 250 0.0 0.0 0.00 0.02 0.00 97 1014.1
20221207044557 29 267 0.0 0.0 0.00 0.02 0.00 97 1014.2
20221207044055 29 223 0.0 0.0 0.00 0.02 0.00 97 1014.2
20221207043557 29 209 0.0 0.0 0.00 0.02 0.00 97 1014.1
20221207043104 30 207 0.0 0.0 0.00 0.02 0.00 97 1014.3
20221207042600 30 220 0.0 0.0 0.00 0.02 0.00 97 1014.3
20221207042054 30 178 0.0 0.0 0.00 0.02 0.00 97 1014.3
20221207041604 30 206 0.0 0.0 0.00 0.02 0.00 97 1014.5
20221207041053 30 211 0.0 0.0 0.00 0.02 0.00 97 1014.5
20221207040555 30 239 0.0 0.0 0.00 0.02 0.00 97 1014.4
20221207040116 30 231 0.0 0.0 0.00 0.02 0.00 97 1014.4
20221207035553 30 251 0.0 0.0 0.00 0.02 0.00 97 1014.4
20221207035053 30 260 0.0 0.9 0.00 0.02 0.00 97 1014.3
20221207034621 30 104 0.0 0.9 0.00 0.02 0.00 97 1014.3
20221207034052 30 227 0.0 0.0 0.00 0.02 0.00 97 1014.4
20221207033553 30 261 0.0 0.0 0.00 0.02 0.00 97 1014.5
20221207033051 30 219 0.0 0.0 0.00 0.02 0.00 97 1014.5
20221207032554 30 250 0.0 0.0 0.00 0.02 0.00 97 1014.3
20221207032051 30 267 0.0 0.0 0.00 0.02 0.00 97 1014.5
20221207031552 30 227 0.0 0.0 0.00 0.02 0.00 97 1014.5
20221207031056 30 241 0.0 0.0 0.00 0.02 0.00 97 1014.5
20221207030549 30 251 0.0 0.0 0.00 0.02 0.00 97 1014.6
20221207030048 30 253 0.0 0.0 0.00 0.02 0.00 97 1014.6
20221207025548 30 221 0.0 0.0 0.00 0.02 0.00 97 1014.7
20221207025050 30 187 0.0 0.0 0.00 0.02 0.00 97 1014.8
20221207024552 30 246 0.0 0.0 0.00 0.02 0.00 97 1014.7
20221207024047 30 195 0.0 0.0 0.00 0.02 0.00 97 1014.8
20221207023548 30 226 0.0 0.0 0.00 0.02 0.00 97 1014.7
20221207023048 30 232 0.0 0.0 0.00 0.02 0.00 97 1014.9
20221207022548 30 234 0.0 0.0 0.00 0.02 0.00 97 1014.9
20221207022046 30 236 0.0 0.0 0.00 0.02 0.00 97 1014.9
20221207021600 30 235 0.0 0.0 0.00 0.02 0.00 97 1014.9
20221207021045 30 217 0.0 0.0 0.00 0.02 0.00 97 1014.9
20221207020545 30 186 0.0 0.0 0.00 0.02 0.00 97 1014.9
20221207020044 30 182 0.0 0.0 0.00 0.02 0.00 97 1014.9
20221207015547 30 272 0.0 0.0 0.00 0.02 0.00 97 1015.0
20221207015044 30 252 0.0 0.0 0.00 0.02 0.00 97 1015.1
20221207014547 30 223 0.0 0.0 0.00 0.02 0.00 97 1015.0
20221207014044 30 154 0.0 0.0 0.00 0.02 0.00 97 1015.0
20221207013543 30 205 0.0 0.0 0.00 0.02 0.00 97 1015.1
20221207013044 30 286 0.0 0.0 0.00 0.02 0.00 97 1015.1
20221207012545 30 200 0.0 0.0 0.00 0.02 0.00 97 1015.1
20221207012043 30 247 0.0 0.9 0.00 0.02 0.00 97 1015.0
20221207011546 30 291 0.0 0.9 0.00 0.02 0.00 97 1015.0
20221207011042 30 157 0.0 0.0 0.00 0.02 0.00 97 1015.1
20221207010542 30 204 0.0 0.0 0.00 0.02 0.00 97 1015.1
20221207010042 30 239 0.0 0.0 0.00 0.02 0.00 97 1015.0
20221207005542 30 191 0.0 0.0 0.00 0.02 0.00 97 1015.0
20221207005041 30 238 0.0 0.0 0.00 0.02 0.00 97 1015.0
20221207004543 30 298 0.0 0.9 0.00 0.02 0.00 97 1015.0
20221207004041 30 230 0.0 0.9 0.00 0.02 0.00 97 1014.9
20221207003544 30 230 0.0 0.0 0.00 0.02 0.00 97 1015.0
20221207003039 30 268 0.0 0.0 0.00 0.02 0.00 97 1015.0